Погода в Ясной Поляне

Россия / Калининградская область     54°34′01″N   22°26′48″E
темп.,
°C
ветер,
м/с
пор.,
м/с
влажн.,
%
обл.,
%
осадки,
мм/ч
давл.,
гПа
погр.,
м
6 мая, чт
чт623:00+6юз31085100 0.1 998235
02:00+5юз4118670 0.1 998326
05:00+4юз71288100 0.0 999883
08:00+5зюз8138995 0.7 10001042
11:00+6зюз9137999 0.4 10011322
14:00+7зюз91585100 1.2 10031442
17:00+9зюз7157126 1.2 10032039
20:00+5юз41075100 1.4 1004286
7 мая, пт
пт723:00+6юз51175100 0.0 1004470
02:00+3ююз499570 0.1 1005236
05:00+3ююз3795100 0.0 1005156
08:00+7ююз3471100 0.0 1005371
11:00+9ю3457100 0.0 10051437
14:00+9ю2161100 0.2 10041150
17:00+6сз3490100 1.3 1004853
20:00+5сз3790100 2.9 1005299
8 мая, сб
сб823:00+2зсз4997100 0.0 1007357
02:00+1з499861 0.1 1008394
05:000зюз369868 0.0 1010152
08:00+4з698896 0.1 1012776
11:00+6з61088100 0.6 10121148
14:00+9зсз8117487 2.3 10131648
17:00+8зсз687715 1.3 10151304
20:00+5з37935 1.8 1017149
9 мая, вс
вс923:00+2зюз369711 0.0 1019117
02:00+1юз359510 0.0 102086
05:00+1ююз3893100 0.0 1021133
08:00+6ююз478092 0.0 1021314
11:00+12ююз675399 0.0 10201352
14:00+13ю685282 0.0 10191462
17:00+11ю51267100 0.0 1018569
20:00+12ю7146994 0.0 1018558
10 мая, пн
пн1023:00+11ю61574100 0.0 1019400
02:00+10ю61575100 0.0 1019328
05:00+9ю61480100 0.0 1019287
08:00+13ю6157128 0.0 1020482
11:00+17ю7115537 0.0 1019865
14:00+20ю711525 0.0 10191123
17:00+19ююв6125967 0.0 10171142
20:00+15ююв5127296 0.0 1018446